Location: Grand Lay
(47.3253°N, 0.9468°E)
Time: 09:34:07
(UTC+00:00)

USA 307 - Pass Details

Date: 18 January 2026
Orbit: 495 x 502 km, 54.0° (Epoch: 10 March)

Event Time Altitude Azimuth Distance (km) Brightness Sun altitude
Exits shadow 05:57:41 35° 292° (WNW) 825 3.2 -16.4°
Maximum altitude 05:59:14 74° 215° (SW) 526 2.6 -16.1°
Drops below altitude 10° 06:03:06 10° 130° (SE) 1,643 6.3 -15.5°
Sets 06:05:10 0° 128° (SE) 2,442 7.4 -15.2°
